Location: Beccas
(43.4309°N, 0.1528°E)
Time: 23:36:45
(UTC+00:00)

Cosmos 1703 - Pass Details

Date: 30 May 2022
Orbit: 518 x 535 km, 82.5° (Epoch: 01 July)

Event Time Altitude Azimuth Distance (km) Brightness Sun altitude
Exits shadow 02:26:55 33° 232° (SW) 919 3.9 -16.3°
Maximum altitude 02:28:14 46° 282° (WNW) 724 3.7 -16.1°
Drops below altitude 10° 02:32:02 10° 356° (N) 1,791 6.7 -15.7°
Sets 02:34:16 0° 3° (N) 2,684 7.8 -15.5°
